Location: Unspecified
(0.0000°N, 0.0000°E)
Time: 18:02:41
(UTC+00:00)

Kosmos-82 - Visible Passes

Search period start: 06 December 2025 00:00
Search period end: 16 December 2025 00:00
Orbit: 1426 x 1543 km, 56.1° (Epoch: 06 December)

Date Brightness Start Highest point End Pass type
(mag) Time Alt. Az. Time Alt. Az. Time Alt. Az.
06 Dec 11.0 21:29:07 10° S 21:31:42 21° S 21:31:42 21° S visible
07 Dec 10.9 20:36:24 10° S 20:39:53 20° SSE 20:39:53 20° SSE visible
07 Dec 11.6 22:35:14 10° SW 22:35:34 11° SW 22:35:34 11° SW visible
08 Dec 11.1 19:46:37 10° SE 19:48:06 11° SE 19:48:06 11° SE visible
08 Dec 10.9 21:40:42 10° SSW 21:43:48 25° SSW 21:43:48 25° SSW visible
09 Dec 10.3 20:46:58 10° SSW 20:52:04 34° SSE 20:52:04 34° SSE visible
10 Dec 10.4 19:54:13 10° S 20:00:24 24° SE 20:00:24 24° SE visible
10 Dec 11.0 21:53:09 10° SW 21:56:05 23° SW 21:56:05 23° SW visible
11 Dec 11.0 19:04:07 10° SE 19:06:29 11° SE 19:08:46 10° ESE visible
11 Dec 9.9 20:58:36 10° SSW 21:04:29 48° SSW 21:04:29 48° SSW visible
12 Dec 9.6 20:04:50 10° SSW 20:12:54 47° SE 20:12:54 47° SE visible
12 Dec 11.3 22:06:43 10° WSW 22:08:36 16° WSW 22:08:36 16° WSW visible
13 Dec 10.3 19:12:02 10° S 19:18:53 25° ESE 19:21:23 22° E visible
13 Dec 10.2 21:11:05 10° SW 21:17:05 42° WSW 21:17:05 42° WSW visible
14 Dec 11.0 18:21:40 10° SE 18:24:23 12° SE 18:27:06 10° ESE visible
14 Dec 9.1 20:16:29 10° SSW 20:25:18 88° ESE 20:25:38 84° NE visible
15 Dec 9.6 19:22:42 10° SSW 19:31:06 49° ESE 19:34:12 36° ENE visible
15 Dec 10.8 21:24:42 10° WSW 21:29:56 25° WNW 21:29:56 25° WNW visible
